Theta_e
313 315 311 316 317 319 319 321 323 327 329 340 346 348 347 346 349 351 342 340 345 350 350 344 340 336 334 329 321 336 338 338 338 336 335 333 329 326 325 326 326 324 322 322 322 323 325 327 331
313 315 312 316 316 316 316 319 323 325 320 317 323 335 342 339 345 343 341 340 344 345 351 346 341 337 332 328 319 333 338 337 337 337 335 333 328 326 326 324 324 323 322 322 322 324 327 329 329
313 313 315 316 314 316 316 316 320 318 317 317 322 330 343 344 341 341 340 339 341 345 350 347 342 338 332 325 319 331 336 336 336 336 335 333 326 327 326 324 322 322 322 323 325 327 328 325 322
314 317 315 316 317 315 314 317 315 317 317 317 318 320 319 329 337 344 342 339 339 344 348 348 342 338 334 326 318 328 334 335 334 332 332 329 326 327 326 325 322 322 323 326 328 326 322 322 333
314 315 317 318 318 316 315 314 316 318 317 318 318 320 321 322 333 338 345 340 342 348 347 346 342 338 333 328 319 319 324 325 325 329 331 326 327 327 325 325 322 323 326 327 323 321 322 335 339
318 316 317 316 317 316 317 316 316 317 317 320 320 319 321 340 331 332 345 341 347 349 350 345 343 339 332 328 320 320 320 321 324 328 326 327 328 326 326 323 323 326 327 323 321 325 334 340 340
318 317 317 317 319 319 320 317 318 319 320 320 318 320 321 322 323 332 336 341 347 350 350 346 344 340 335 327 321 320 320 320 322 325 327 327 326 324 327 322 325 327 323 321 331 338 339 339 339
316 318 319 318 317 316 318 317 317 317 318 318 318 321 321 319 333 339 343 343 340 341 348 348 344 341 339 331 322 320 320 321 323 325 326 325 323 325 323 323 327 324 321 332 341 341 341 341 341
313 315 315 316 317 316 316 315 314 314 314 315 317 317 318 326 323 347 349 348 345 341 341 349 346 343 340 334 329 323 321 321 322 323 323 323 323 325 322 325 326 321 330 340 341 342 343 343 342
312 313 313 314 315 314 314 314 314 314 315 315 315 316 317 331 339 348 350 353 354 348 347 350 347 344 341 338 330 327 324 322 322 323 323 323 323 322 323 326 321 323 337 340 341 342 343 341 342
310 314 313 314 313 314 315 315 315 315 315 315 315 315 316 319 331 337 349 349 349 354 352 352 350 345 342 340 331 330 327 327 325 324 323 323 322 323 326 322 322 327 338 340 341 342 342 342 343
316 314 313 314 315 315 315 315 315 315 315 315 314 314 314 315 324 332 345 351 349 349 352 353 352 345 344 341 336 331 331 331 329 323 323 322 323 325 323 323 330 335 340 339 340 337 338 338 339
316 314 315 315 314 314 314 314 315 314 314 314 314 314 315 316 322 321 321 337 347 350 348 354 351 346 345 342 341 332 332 333 332 324 323 323 325 323 323 333 335 340 340 340 339 338 337 335 338
315 314 314 313 313 313 314 315 314 315 315 316 316 316 316 315 317 319 319 320 324 338 349 351 352 347 345 344 342 338 332 333 333 325 323 323 323 324 334 337 337 336 337 339 337 334 336 341 334
314 314 314 313 314 315 315 314 313 315 315 316 316 316 316 316 315 315 316 318 323 325 342 349 350 349 345 344 343 340 334 333 334 326 323 323 322 328 336 337 338 337 336 335 334 339 343 340 335
314 313 315 315 314 315 315 314 314 314 314 314 315 315 316 317 316 316 315 318 321 325 329 343 349 349 347 344 343 342 334 333 333 325 322 323 331 332 335 336 336 336 335 334 336 343 343 337 335
314 316 316 315 315 315 315 316 314 314 314 315 315 315 315 316 317 315 315 315 319 326 333 344 347 349 347 345 342 342 336 333 333 324 322 325 334 335 335 335 336 337 335 336 340 345 343 340 338
317 317 316 316 315 315 316 316 316 314 314 314 315 314 314 315 317 316 316 314 323 332 342 345 346 346 347 344 338 342 336 333 333 324 323 331 337 335 334 338 339 337 337 340 345 345 343 341 337
315 316 317 316 316 316 316 316 316 315 315 315 315 314 314 315 316 316 316 315 325 338 343 345 345 345 346 341 337 341 335 334 332 324 329 337 334 333 335 340 339 338 338 345 346 344 342 337 334
316 317 318 317 315 316 316 317 316 316 315 314 314 314 314 314 316 316 316 316 316 335 341 343 344 345 345 338 336 339 337 334 330 323 324 338 335 339 343 341 339 338 341 345 345 342 334 333 332
318 318 318 318 317 317 316 317 317 316 314 313 313 313 313 314 316 317 316 316 316 329 340 339 343 343 343 336 336 339 336 334 329 323 329 336 338 342 342 338 338 342 344 345 343 334 333 332 330
319 317 318 318 318 319 315 319 317 316 314 315 314 316 314 314 315 316 316 317 321 330 341 339 339 341 339 336 335 335 334 331 325 326 337 342 340 341 341 341 340 342 345 344 334 331 331 331 329
318 318 318 318 319 318 317 317 316 315 315 317 319 318 317 315 314 315 316 316 323 335 339 339 339 341 339 335 333 332 331 328 322 337 342 342 339 341 341 343 344 346 345 336 329 328 329 326 323
316 317 317 316 317 319 317 317 317 314 314 317 318 317 317 317 316 314 314 315 325 338 337 338 340 337 337 334 329 329 327 325 324 340 341 342 340 341 342 343 346 345 338 329 322 322 321 318 314
316 318 319 318 317 317 314 316 316 314 314 316 319 318 316 316 317 317 315 318 322 337 339 339 339 340 337 334 331 333 328 322 336 341 342 341 341 342 343 345 345 340 331 322 320 318 314 311 313
318 318 319 320 319 318 315 315 315 315 314 317 317 318 317 316 316 317 321 322 324 336 335 334 336 337 336 337 335 335 326 326 340 343 341 339 342 342 343 343 340 333 325 319 317 312 310 313 312
317 319 317 319 318 318 316 316 315 315 317 317 317 317 316 316 316 315 317 328 329 336 332 335 336 335 333 334 337 335 333 335 339 343 341 342 343 343 342 342 335 328 322 317 311 309 313 311 310
317 315 319 319 321 318 315 315 314 318 318 317 318 317 317 317 316 315 316 321 333 335 335 338 338 337 334 332 332 337 337 336 340 342 341 343 343 342 341 337 330 324 318 312 309 313 314 311 311
317 317 318 316 318 320 318 315 316 316 317 317 317 316 316 316 316 315 316 320 332 335 335 338 341 339 337 335 340 339 337 337 343 342 342 341 342 342 339 336 329 320 315 308 311 314 313 311 311
317 317 317 320 319 318 319 318 315 315 316 318 317 316 316 316 316 316 317 328 333 334 332 338 339 332 339 343 342 340 338 340 341 342 342 342 342 339 336 334 324 316 309 310 314 314 311 311 311
Wind_Speed
5 7 8 7 4 2 3 3 3 4 3 5 7 4 6 4 5 2 1 4 17 28 34 33 30 27 24 22 24 27 28 25 22 20 18 16 14 12 11 9 8 8 7 7 6 6 5 3 2
6 10 10 3 4 7 5 2 8 2 6 12 7 9 7 11 14 15 21 16 18 20 34 35 32 28 25 22 25 28 27 25 22 20 18 16 14 12 10 9 9 8 8 7 6 5 3 2 1
8 12 5 3 3 9 4 5 7 7 10 5 3 4 4 5 6 7 14 8 16 27 37 36 33 29 25 22 25 28 27 25 22 20 19 17 15 12 10 9 9 8 7 6 5 4 3 1 1
8 5 4 4 9 4 3 4 3 7 4 4 9 8 9 8 9 8 11 10 16 28 35 35 31 28 26 23 25 27 27 25 23 21 20 18 16 13 11 10 9 8 7 6 5 3 2 3 2
8 3 2 3 5 3 6 7 4 7 5 7 10 7 11 11 11 18 17 12 21 31 36 36 32 28 25 23 24 25 26 25 23 23 22 19 16 13 11 10 9 8 7 5 4 3 4 4 2
4 1 3 8 6 3 7 6 5 5 3 9 6 14 8 4 13 22 13 16 24 25 33 34 32 29 25 23 22 24 25 24 24 23 21 19 16 13 11 10 10 8 6 4 4 4 5 3 1
4 2 2 2 4 3 3 3 3 3 6 4 17 8 10 15 24 25 22 15 24 24 30 34 33 29 26 24 22 22 23 23 23 22 20 17 15 13 11 11 10 8 6 5 6 6 5 1 1
4 2 5 5 6 7 2 7 6 6 11 14 6 5 9 29 32 24 16 14 24 25 30 37 35 32 29 25 24 23 23 22 22 21 18 17 15 13 12 12 11 8 6 6 7 5 2 0 1
4 3 4 3 4 4 3 12 7 7 16 16 12 22 23 25 28 15 8 13 20 28 27 38 37 35 31 28 25 23 22 21 20 20 19 17 16 15 14 13 10 8 8 7 5 3 1 1 1
1 2 4 2 3 9 10 11 20 8 12 16 22 22 13 17 17 13 7 10 15 21 26 37 38 38 35 30 28 26 24 22 21 20 18 17 17 15 15 13 11 10 9 7 3 2 3 1 1
2 2 3 5 7 8 10 12 10 13 11 14 19 25 21 18 16 16 12 11 14 16 22 30 39 38 37 34 32 28 26 23 20 18 18 17 16 16 15 12 11 11 9 7 4 3 4 4 5
3 5 5 4 7 9 11 14 12 16 17 18 19 25 24 22 18 13 13 12 12 16 19 29 37 39 38 36 32 29 26 22 20 18 18 18 18 16 14 13 12 11 9 6 5 5 5 7 8
3 2 5 12 18 18 15 16 14 13 15 16 18 19 16 18 18 16 13 13 17 14 21 20 31 37 38 35 33 30 27 24 21 19 18 18 18 16 15 14 12 10 9 8 5 6 8 8 7
3 11 17 14 15 10 9 11 6 11 10 11 9 13 15 15 16 17 15 13 14 20 20 24 26 32 35 35 32 30 28 25 22 19 19 19 17 17 16 14 11 9 8 8 6 8 9 6 5
6 7 10 1 4 6 8 10 7 1 6 12 15 16 19 18 15 18 19 18 16 19 25 26 31 31 34 35 32 30 28 25 22 20 19 18 18 18 16 13 10 11 9 7 7 7 6 6 4
4 2 4 5 6 3 6 11 6 6 12 21 21 20 24 23 21 20 19 17 18 19 26 29 31 39 35 35 34 31 29 25 22 20 20 20 19 17 16 14 12 10 9 8 8 7 7 7 7
3 8 11 9 6 6 3 16 3 16 17 15 19 18 21 26 25 21 20 20 21 19 23 29 32 36 39 35 35 31 29 26 23 22 22 21 19 17 15 13 12 11 10 9 9 8 9 9 9
12 15 12 13 5 15 15 25 17 14 18 19 20 19 21 27 25 22 19 19 18 20 22 28 30 27 35 33 32 30 29 28 25 24 23 22 19 17 15 14 13 12 11 10 11 10 10 10 10
11 15 20 17 16 15 15 23 20 16 17 21 20 19 20 26 28 25 20 19 16 21 24 26 28 25 30 33 33 34 33 31 27 25 24 22 20 17 16 12 13 13 12 12 12 11 11 9 10
14 19 21 17 10 10 17 24 24 16 19 19 17 19 23 27 28 25 22 18 19 24 26 23 25 25 33 33 35 34 33 30 27 26 26 24 19 17 13 11 13 14 13 13 12 13 11 9 12
14 14 17 21 21 18 18 24 24 13 14 13 17 21 23 25 28 25 23 19 19 29 34 24 28 31 34 33 34 33 32 31 30 28 28 25 21 15 12 11 12 14 14 14 13 13 9 9 14
10 4 11 12 11 9 6 12 22 14 6 12 11 14 17 23 25 27 25 19 21 28 32 30 28 35 35 34 34 35 35 33 30 30 29 26 21 18 16 13 13 15 15 13 12 10 9 9 11
8 11 11 12 13 14 14 8 16 9 17 5 8 13 11 14 20 24 27 22 20 29 31 30 48 29 30 36 33 32 32 33 33 33 29 25 24 22 19 15 16 14 11 14 10 10 10 11 13
11 9 14 7 7 8 16 12 15 4 6 5 6 10 12 15 15 18 24 26 20 23 31 36 35 25 33 37 32 29 32 36 36 36 32 30 29 26 20 18 17 13 12 12 10 10 11 12 13
3 8 4 3 4 7 6 8 16 6 10 7 7 11 16 15 16 16 18 23 21 24 30 36 36 40 37 35 31 27 33 37 39 38 36 34 31 27 21 19 17 14 12 11 10 10 11 11 11
14 5 4 6 7 13 5 9 5 7 8 6 9 12 16 14 15 17 14 20 22 24 28 32 37 36 32 29 26 31 35 38 39 37 37 33 31 25 20 19 18 14 12 11 10 11 11 12 11
1 5 3 7 10 6 6 8 12 6 6 7 10 12 17 18 16 18 15 16 21 24 32 33 41 37 35 28 27 43 43 43 46 41 37 36 31 24 20 20 17 14 12 11 12 12 13 13 12
14 0 5 3 4 6 5 11 10 7 5 8 9 11 17 20 20 19 15 9 21 25 29 36 39 42 39 45 45 53 48 47 46 43 38 37 31 24 21 20 17 15 14 13 14 14 13 12 11
4 5 5 2 4 4 6 5 5 7 7 9 10 14 18 20 24 20 19 10 20 24 28 38 38 51 47 50 42 49 50 50 47 43 38 33 29 25 22 18 18 16 14 15 16 15 13 11 9
12 12 3 4 4 4 5 12 9 10 8 7 16 22 25 27 26 22 19 10 20 27 31 35 44 57 46 38 45 47 48 51 44 40 39 33 29 26 23 19 19 18 15 17 17 15 14 11 9
Wind_Direction
176 168 163 155 207 253 223 220 298 226 176 42 119 186 210 253 191 243 215 283 203 194 186 183 183 180 174 173 178 177 174 172 175 174 173 168 171 169 163 160 157 156 153 149 149 148 142 126 50
163 155 148 134 228 225 221 239 225 256 341 316 282 243 254 265 246 278 293 289 200 200 193 185 185 183 179 177 178 180 179 175 179 178 178 175 175 171 168 163 163 164 158 155 154 146 133 109 8
159 156 161 185 209 230 244 191 234 304 322 341 315 283 274 250 272 249 259 285 191 194 194 187 184 184 180 179 181 181 185 184 186 186 181 179 176 174 171 170 171 170 161 156 149 138 134 103 45
147 133 66 228 221 216 248 134 330 327 318 349 342 280 289 278 311 295 307 257 205 190 187 185 187 185 183 181 182 184 189 192 192 191 184 180 178 174 174 177 178 172 159 155 143 146 121 108 74
144 108 151 211 247 281 251 270 289 313 300 306 340 306 290 315 313 297 298 249 197 182 184 186 189 186 187 185 183 185 191 192 193 189 182 179 179 178 179 181 179 171 161 159 149 138 122 122 82
99 105 190 228 239 214 265 251 270 273 297 302 328 312 282 7 343 346 311 227 197 192 186 188 191 187 188 186 183 186 190 189 189 187 182 179 181 185 186 182 179 170 166 166 144 139 139 127 75
103 123 163 194 255 243 256 5 148 326 304 300 327 288 278 303 329 316 308 218 200 200 193 191 194 189 190 186 184 187 191 189 189 189 185 183 188 189 189 181 177 177 177 158 141 146 152 169 3
111 121 167 221 244 266 330 322 326 310 305 311 301 267 304 316 327 317 287 250 211 202 202 198 194 190 192 191 186 187 190 189 189 193 192 191 192 192 188 181 180 182 174 153 150 163 167 94 30
120 159 206 214 201 271 14 325 306 298 293 294 272 279 289 310 324 331 265 240 219 214 207 202 195 194 194 190 190 190 190 190 192 195 195 194 196 191 185 181 185 179 170 160 163 185 221 313 98
148 200 198 221 254 294 319 301 307 302 308 293 294 286 290 304 319 322 270 228 212 213 206 199 198 195 195 192 191 190 191 191 195 198 198 197 194 188 184 186 187 176 169 171 175 181 241 323 294
126 232 179 248 259 290 297 287 300 292 288 299 295 293 290 302 299 304 282 256 227 209 215 200 197 197 197 195 193 194 193 193 196 198 199 197 192 186 187 188 182 178 174 180 182 195 251 267 294
270 243 234 249 268 293 283 291 275 279 288 292 288 290 288 290 280 283 274 257 246 229 207 210 200 198 199 199 197 198 196 195 198 198 197 196 192 187 187 184 183 181 184 198 200 229 278 298 293
243 244 266 279 283 281 280 263 275 265 279 293 298 300 298 289 280 277 285 265 260 245 233 206 205 200 204 201 201 200 199 198 201 200 197 197 193 187 184 182 188 193 206 220 219 260 286 300 304
312 298 289 289 285 271 270 285 261 261 306 279 313 305 308 301 293 285 278 285 273 251 240 228 213 205 207 207 206 203 202 201 202 203 200 198 193 185 184 191 201 205 209 220 242 272 287 282 312
285 299 311 243 320 304 318 291 229 39 331 321 325 313 302 299 289 287 283 285 276 259 244 236 224 216 209 211 210 209 206 204 205 205 202 200 197 191 193 199 206 209 222 228 252 274 271 281 290
278 239 308 333 307 330 333 271 299 308 330 310 304 300 296 293 290 282 279 277 272 260 240 235 223 222 213 212 212 210 208 206 207 205 205 201 193 193 200 209 214 221 231 232 249 264 266 270 260
192 296 296 306 279 290 256 292 261 297 305 291 294 289 284 285 286 282 275 275 276 251 237 231 225 221 215 213 213 209 208 207 208 206 204 200 199 201 204 213 215 229 230 235 243 256 256 258 257
309 307 290 284 280 293 288 277 280 283 286 286 281 282 280 277 274 278 276 277 268 238 229 231 220 219 215 210 209 206 208 208 210 206 202 194 200 204 208 212 219 230 232 238 245 256 255 252 250
292 285 285 279 282 284 282 280 287 294 279 281 272 268 273 274 268 270 273 267 255 224 221 221 217 220 209 206 202 201 206 207 206 203 197 195 198 200 208 218 230 237 238 240 253 257 260 247 227
297 292 289 290 267 280 288 288 292 292 275 276 274 272 274 271 268 263 268 257 248 225 221 215 218 222 202 199 200 201 204 208 209 204 199 198 200 199 210 227 237 237 234 248 258 265 246 232 205
294 284 296 286 294 287 286 283 286 296 277 277 268 273 269 264 261 257 263 257 241 224 219 211 212 205 197 193 196 196 204 206 203 200 198 199 192 199 217 225 223 230 243 257 262 252 236 233 208
301 326 308 302 294 291 325 290 289 295 294 299 307 294 278 260 260 258 259 256 231 224 214 209 212 201 191 190 193 198 203 204 202 199 196 196 192 204 222 221 217 230 243 252 251 226 229 230 231
286 309 303 291 286 295 264 265 279 266 294 317 327 330 320 293 270 262 255 255 241 214 206 196 202 184 189 196 195 197 203 206 200 195 195 196 197 205 220 223 221 225 241 248 228 230 228 232 232
298 300 301 270 263 261 273 235 288 259 237 287 325 343 351 336 307 272 259 251 235 201 215 204 198 198 193 192 189 199 206 203 199 197 198 199 203 206 215 224 227 226 231 224 220 219 219 220 224
291 295 300 260 218 268 334 237 256 255 229 282 306 324 342 331 324 297 264 250 230 214 195 203 191 184 195 190 188 202 210 204 200 200 199 201 204 207 216 223 225 221 214 218 215 214 214 209 198
299 264 259 286 284 301 288 259 270 342 229 237 288 296 321 319 326 317 295 246 231 214 212 216 200 192 192 199 197 211 213 205 205 204 201 201 203 208 214 220 215 206 206 214 214 206 194 180 179
75 226 326 274 257 273 253 271 268 244 211 266 295 312 320 313 324 319 311 242 221 215 221 213 203 196 191 197 204 211 213 207 210 206 204 201 200 204 209 210 204 197 205 209 206 189 181 172 171
239 252 255 202 275 267 256 273 271 193 214 268 284 310 313 319 319 320 307 259 216 211 212 215 209 198 205 208 215 214 211 211 215 208 204 200 200 200 201 200 195 194 198 200 195 184 176 177 170
243 223 212 256 228 270 291 264 248 248 209 268 297 296 292 311 315 314 314 314 214 206 207 209 205 200 205 207 209 208 211 213 212 208 203 203 199 196 200 194 195 193 192 194 186 183 179 174 170
246 262 224 256 275 237 265 272 240 253 258 285 297 298 300 307 309 315 322 326 205 200 210 202 194 194 210 196 209 210 215 213 211 205 204 201 200 193 195 193 189 188 189 187 182 180 175 172 163